Regional Weather Roundup
Issued by NWS

Home | Current Version | Previous Version | Text Only | Print | Product List | Glossary On
Versions: 1 2 3 4 5 6 7 8 9 10 11 12 13 14 15 16 17 18 19 20 21 22 23 24 25 26 27 28 29 30 31 32 33 34 35 36 37 38 39 40 41 42 43 44 45 46 47 48 49 50
000
ASUS44 KMEG 211410
RWRTN
TENNESSEE HOURLY STATE WEATHER ROUNDUP
NATIONAL WEATHER SERVICE MEMPHIS TN
900 AM CDT TUE OCT 21 2014

TNZ002-004-019-021-049-052-054-088>092-211500-
WEST TENNESSEE

CITY           SKY/WX    TMP DP  RH WIND       PRES   REMARKS
MEMPHIS INTL   SUNNY     62  54  74 NE3       30.09R
NWS MEMPHIS      N/A     55 N/A N/A MISG        N/A
JACKSON        SUNNY     56  53  90 CALM      30.09R
DYERSBURG      SUNNY     52  43  71 CALM      30.11R
UNION CITY     SUNNY     54  52  94 CALM      30.08R
PARIS          SUNNY     55  48  76 NW3       30.08R
HUNTINGDON     SUNNY     54  51  89 CALM      30.08R
LEXINGTON      SUNNY     52  50  93 CALM      30.07R
SAVANNAH       SUNNY     54  54 100 CALM      30.08R
$$

TNZ008-025-027-028-033-062-065-066-211500-
NORTH MIDDLE TENNESSEE

CITY           SKY/WX    TMP DP  RH WIND       PRES   REMARKS
NASHVILLE      SUNNY     58  52  80 NW3       30.07R
CLARKSVILLE    SUNNY     56  51  84 NW5       30.07R
SMYRNA         SUNNY     53  50  90 CALM      30.08R
COOKEVILLE     SUNNY     54  52  94 CALM      30.05R
CROSSVILLE     SUNNY     54  49  83 W6        30.06R
$$

TNZ061-075-076-078-094-096-097-211500-
SOUTH MIDDLE TENNESSEE

CITY           SKY/WX    TMP DP  RH WIND       PRES   REMARKS
FAYETTEVILLE   SUNNY     55  50  82 S24       30.07R SQUALL
TULLAHOMA      SUNNY     55  52  88 CALM      30.07R
WINCHESTER       N/A     55  52  88 CALM      30.07R
MCMINNVILLE    SUNNY     55  55 100 CALM      30.06R
COLUMBIA       SUNNY     55  55 100 CALM      30.06R
SHELBYVILLE    SUNNY     55  52  88 CALM      30.07S
$$

TNZ017-018-042-046-047-211500-
NORTHEAST TENNESSEE

CITY           SKY/WX    TMP DP  RH WIND       PRES   REMARKS
TRI CITIES     CLOUDY    56  51  84 SW5       30.00R
ELIZABETHTON   CLOUDY    55  48  76 VRB5      30.00R
$$

TNZ012-013-036-069-073-074-211500-
CENTRAL EAST TENNESSEE

CITY           SKY/WX    TMP DP  RH WIND       PRES   REMARKS
KNOXVILLE      MOSUNNY   57  51  80 SW8       30.03R
OAK RIDGE      SUNNY     57  50  77 CALM      30.04R
GATLINBURG     SUNNY     59  50  72 W5        30.01S
MORRISTOWN     SUNNY     57  52  82 W9        30.02R
$$

TNZ083-085-099-211500-
SOUTHEAST TENNESSEE

CITY           SKY/WX    TMP DP  RH WIND       PRES   REMARKS
CHATTANOOGA    SUNNY     58  52  80 CALM      30.05R
$$

SKY/WX REPORTED AS FAIR MEANS FEW OR NO CLOUDS BELOW
12 THOUSAND FEET.




USA.gov is the U.S. government's official web portal to all federal, state and local government web resources and services.